Regional Weather Roundup
Issued by NWS

Home | Current Version | Previous Version | Graphics & Text | Print | Product List | Glossary Off
Versions: 1 2 3 4 5 6 7 8 9 10 11 12 13 14 15 16 17 18 19 20 21 22 23 24 25 26 27 28 29 30 31 32 33 34 35 36 37 38 39 40 41 42 43 44 45 46 47 48 49 50

000
ASUS43 KMPX 260610
RWRMN
WEATHER ROUNDUP FOR MINNESOTA
NATIONAL WEATHER SERVICE TWIN CITIES/CHANHASSEN MN
100 AM CDT SUN APR 26 2015


NOTE: "FAIR" INDICATES FEW OR NO CLOUDS BELOW 12,000 FEET WITH NO
SIGNIFICANT WEATHER AND/OR OBSTRUCTIONS TO VISIBILITY. N/A MEANS
CURRENT SKY AND/OR WEATHER CONDITIONS ARE NOT AVAILABLE.

MNZ060>063-068>070-260700-
   Twin Cities Metro

CITY           SKY/WX    TMP DP  RH WIND       PRES   REMARKS
TWIN CITIES    CLEAR     46  23  40 NE9       30.00R
6HR MIN TEMP:  45; 6HR MAX TEMP:  60;

ST PAUL        CLEAR     45  22  40 N6        30.01R
CRYSTAL        CLEAR     43  23  45 N7        30.00R
BLAINE         CLEAR     43  25  49 N7        30.01R
LAKEVILLE      CLEAR     43  28  56 NE7       29.98R
EDEN PRAIRIE   CLEAR     45  25  45 NE8       29.98R
6HR MIN TEMP:  45; 6HR MAX TEMP:  60;

SOUTH ST PAUL  CLEAR     46  24  41 N5        30.00R
LAKE ELMO      FAIR      43  23  45 NE6       30.01R
$$
MNZ001>005-007-008-013>017-022>024-027-028-260700-
   Northwest Minnesota

CITY           SKY/WX    TMP DP  RH WIND       PRES   REMARKS
BEMIDJI        CLEAR     37  29  72 SE7       30.03R
HALLOCK        CLEAR     48  28  46 SE12      30.00R
ROSEAU         CLEAR     41  30  65 SE3       30.04R
WARROAD        CLEAR     39  34  81 E6        30.05S
THIEF RVR FALL CLEAR     45  28  53 E5        30.02S
CROOKSTON      CLEAR     41  28  60 S7        30.01R
FOSSTON        CLEAR     37  28  70 CALM      30.02R
DETROIT LAKES  CLEAR     45  32  61 SE5       30.02R
MOORHEAD       CLEAR     43  30  61 SE3       30.01R
PARK RAPIDS    CLEAR     41  25  53 CALM      30.02R
MAHNOMEN       FAIR      43  29  58 SE5       30.00R
$$
MNZ006-009>011-018-025>026-260700-
   North Central Minnesota

CITY           SKY/WX    TMP DP  RH WIND       PRES   REMARKS
BAUDETTE       CLEAR     36  29  75 E3        30.05R
FLAG ISLAND    CLEAR     46  27  46 E3        30.04S
INTL FALLS     CLEAR     38  25  59 NE6       30.06R
6HR MIN TEMP:  34; 6HR MAX TEMP:  55;

WASKISH        CLEAR     36  28  75 CALM      30.05R
BIG FORK       CLEAR     36  16  44 CALM      30.06R
LONGVILLE      CLEAR     30  21  69 CALM      30.05R
GRAND RAPIDS   CLEAR     30  12  47 SE3       30.05S
CRANE LAKE     CLEAR     25  23  93 CALM      30.10R
ORR            CLEAR     34  14  44 CALM      30.05R
COOK           CLEAR     27  18  69 CALM      30.07S
WALKER         FAIR      40  22  48 SE3       30.04R
$$
MNZ012-019>021-037-260700-
   Northeast Minnesota

CITY           SKY/WX    TMP DP  RH WIND       PRES   REMARKS
DULUTH         CLEAR     34  14  43 NE3       30.05R
6HR MIN TEMP:  32; 6HR MAX TEMP:  41;

ELY            CLEAR     27  18  69 CALM      30.07S
HIBBING        CLEAR     25  17  72 NW3       30.06R
EVELETH        CLEAR     27  19  74 N5        30.07R WCI  21
DULUTH HARBOR  CLEAR     36  28  75 N3        30.08R
TWO HARBORS    CLEAR     36  18  48 N6        30.04S
SILVER BAY     CLEAR     27  19  74 CALM      30.05S
GRAND MARAIS     N/A     29  19  66 CALM      30.08R
G MARAIS ARPRT CLEAR     27  16  63 N5        30.06S WCI  21
$$
MNZ029>031-032-039>041-046>048-054>057-064-260700-
   West Central Minnesota

CITY           SKY/WX    TMP DP  RH WIND       PRES   REMARKS
FERGUS FALLS   CLEAR     46  27  46 E5        30.01S
WHEATON        CLEAR     37  32  81 E9        30.02R
MORRIS         CLEAR     43  32  65 E10       29.99R
ALEXANDRIA     CLEAR     42  26  53 E9        30.02R
ELBOW LAKE     FAIR      44  31  60 E10       30.00R
WADENA         CLEAR     39  25  56 E5        30.02R
GLENWOOD       CLEAR     37  28  70 E6        30.02R
APPLETON       CLEAR     43  34  70 E7        29.99R
BENSON         CLEAR     43  30  61 SE6       30.00R
ORTONVILLE     CLEAR     45  34  65 E12       29.98R
MADISON        CLEAR     41  36  81 E8        29.99R
WILLMAR        FAIR      45  30  57 E12       30.01R
$$
MNZ033>034-036-042>043-049>051-058-059-260700-
   Central Minnesota

CITY           SKY/WX    TMP DP  RH WIND       PRES   REMARKS
ST CLOUD       CLEAR     38  17  42 E5        30.02R
6HR MIN TEMP:  38; 6HR MAX TEMP:  57;

SAUK CENTRE    FAIR      40  21  46 E7        30.02R
PAYNESVILLE    CLEAR     38  24  58 N8        30.01S
AITKIN         CLEAR     34   9  35 CALM      30.03S
PINE RIVER     CLEAR     37  16  41 E3        30.08R
BRAINERD       CLEAR     36   8  31 NE3       30.04R
STAPLES        CLEAR     39  10  30 CALM      30.03R
LONG PRAIRIE   FAIR      37  23  56 CALM      30.02S
LITTLE FALLS   CLEAR     37  14  38 CALM      30.03R
LITCHFIELD     CLEAR     43  28  56 NE6       30.01R
BUFFALO        CLEAR     41  23  49 N7        30.02R
MAPLE LAKE     CLEAR     40  25  55 N3        30.02R
$$
MNZ037-044-045-052-053-260700-
   East Central Minnesota

CITY           SKY/WX    TMP DP  RH WIND       PRES   REMARKS
PRINCETON      CLEAR     37  19  48 NE6       30.03R
MORA           CLEAR     34  19  55 CALM      30.05S
CAMBRIDGE      CLEAR     39  25  56 NE6       30.01R
RUSH CITY      CLEAR     33  24  70 N5        30.04R WCI  28
MOOSE LAKE     CLEAR     32  21  64 CALM      30.04R
HINCKLEY       FAIR      32  23  69 N5        30.05R WCI  27
CLOQUET        CLEAR     28  16  59 CALM      30.05R
MCGREGOR       CLEAR     32  18  55 NE3       30.05R
$$
MNZ071>073-080-081-089-090-097-098-260700-
   Southwest Minnesota

CITY           SKY/WX    TMP DP  RH WIND       PRES   REMARKS
MONTEVIDEO     CLEAR     43  34  70 SE9       30.00R
GRANITE FALLS  CLEAR     45  32  62 E3        30.00R
CANBY          CLEAR     40  37  89 CALM      29.99R
MARSHALL       CLEAR     39  32  75 CALM      29.97R
REDWOOD FALLS  CLEAR     46  32  58 E6        29.98R
OLIVIA         CLEAR     37  28  70 NE3       29.99R
PIPESTONE      PTCLDY    43  36  75 E3        29.96R
WINDOM         PTCLDY    36  34  93 CALM      29.96S
WORTHINGTON    PTCLDY    39  32  75 CALM      29.96S
JACKSON        PTCLDY    36  34  93 CALM      29.96S
TRACY          CLEAR     42  36  78 SW5       29.97R
SLAYTON        PTCLDY    37  34  90 CALM      29.98R
$$
MNZ065>067-074>077-082>085-091>093-260700-
   South Central Minnesota

CITY           SKY/WX    TMP DP  RH WIND       PRES   REMARKS
MANKATO        CLEAR     43  34  70 N6        29.97S
NEW ULM        CLEAR     45  34  65 NE3       29.97S
ST JAMES       CLEAR     37  34  87 CALM      29.97R
FAIRMONT       CLEAR     39  34  81 NW3       29.95R
GLENCOE        CLEAR     44  31  62 N6        29.98R
FARIBAULT      CLEAR     43  30  61 N5        29.97R
OWATONNA       CLEAR     37  34  87 N3        29.97R
WASECA         CLEAR     39  36  87 N7        29.98R
ALBERT LEA     CLEAR     37  37 100 CALM      29.95S FOG
$$
MNZ078>079-086>088-094>096-260700-
   Southeast Minnesota

CITY           SKY/WX    TMP DP  RH WIND       PRES   REMARKS
ROCHESTER      CLEAR     44  22  41 E3        29.97R
6HR MIN TEMP:  44; 6HR MAX TEMP:  53;

RED WING       CLEAR     45  27  49 CALM      29.97R
STANTON        CLEAR     40  30  68 NE8       29.96R
DODGE CENTER   PTCLDY    43  34  70 N3        29.96R
WINONA         CLEAR     37  32  81 CALM      29.98R
AUSTIN         CLEAR     36  34  93 CALM      29.95R
PRESTON        CLEAR     42  26  53 CALM      29.96R
$$
ABBREVIATIONS USED IN REMARKS
   TC - TEMPERATURES IN CELSIUS
  WCI - WIND CHILL INDEX
   HX - HEAT INDEX
  VSB - VISIBILITY
$$



USA.gov is the U.S. government's official web portal to all federal, state and local government web resources and services.